User: anonymous   Login
Location: Unspecified
(0.0000°N, 0.0000°E)
Time: 21:23:39
(UTC+00:00)
Language:

ARKTIKA-M 2 - Orbit

View from above orbital plane
View from above orbital plane
View from above satellite
View from above satellite

Ground track
Ground track

The orbit is defined by the following mean orbital elements,

1 58584U          26144.33347125 +.00000000 +00000-0 +00000-0 0 00008
2 58584  63.2201 157.0242 6895752 267.5045  18.7884  2.00593321    09
Epoch (UTC): 24 May 2026 08:00:11
Eccentricity: 0.6895752
inclination: 63.2201°
perigee height: 1866 km
apogee height: 38493 km
right ascension of ascending node: 157.0242°
argument of perigee: 267.5045°
revolutions per day: 2.00593321
mean anomaly at epoch: 18.7884°

The dashed part of the orbit path shows where the satellite is in the earth's shadow,  

DLR